Precipitable_Water
0.25 0.17 0.15 0.14 0.15 0.16 0.18 0.19 0.20 0.21 0.21 0.22 0.20 0.18 0.19 0.18 0.20 0.24 0.24 0.27 0.28 0.21 0.19 0.20 0.20 0.19 0.19 0.20 0.21 0.22 0.24 0.24 0.23 0.25 0.29 0.32 0.33 0.34 0.36 0.38 0.39 0.39 0.38 0.46 0.50 0.53 0.55 0.57 0.58 0.59 0.61 0.63 0.63 0.61 0.58 0.56 0.53 0.49 0.45 0.49 0.49 0.52 0.51 0.49 0.46 0.43 0.42 0.41 0.43 0.45 0.43 0.41 0.47 0.49 0.53 0.53 0.57 0.59 0.62 0.63 0.64 0.65 0.67 0.68 0.72 0.78
0.23 0.16 0.15 0.17 0.18 0.18 0.20 0.26 0.26 0.24 0.24 0.22 0.20 0.19 0.19 0.20 0.19 0.24 0.25 0.29 0.30 0.21 0.20 0.23 0.21 0.20 0.20 0.21 0.22 0.23 0.23 0.23 0.24 0.25 0.26 0.31 0.33 0.34 0.36 0.36 0.38 0.40 0.47 0.50 0.51 0.55 0.58 0.59 0.60 0.60 0.62 0.63 0.59 0.60 0.58 0.56 0.53 0.49 0.47 0.49 0.50 0.52 0.52 0.52 0.48 0.45 0.45 0.45 0.43 0.41 0.41 0.41 0.44 0.44 0.44 0.44 0.49 0.53 0.57 0.60 0.61 0.61 0.62 0.63 0.64 0.67
0.17 0.15 0.20 0.22 0.23 0.24 0.24 0.25 0.26 0.24 0.23 0.24 0.22 0.22 0.21 0.23 0.25 0.27 0.28 0.32 0.30 0.23 0.21 0.24 0.20 0.21 0.22 0.24 0.24 0.23 0.24 0.25 0.26 0.26 0.26 0.27 0.29 0.32 0.34 0.36 0.39 0.43 0.44 0.49 0.52 0.55 0.56 0.58 0.59 0.60 0.61 0.62 0.62 0.60 0.58 0.58 0.54 0.49 0.47 0.49 0.51 0.52 0.54 0.55 0.52 0.49 0.47 0.48 0.46 0.43 0.43 0.44 0.40 0.44 0.43 0.43 0.44 0.46 0.46 0.51 0.52 0.52 0.51 0.50 0.52 0.57
0.16 0.21 0.27 0.30 0.29 0.26 0.26 0.27 0.26 0.26 0.25 0.24 0.25 0.23 0.21 0.26 0.24 0.22 0.27 0.31 0.31 0.27 0.25 0.25 0.21 0.22 0.24 0.26 0.25 0.25 0.26 0.27 0.29 0.29 0.28 0.28 0.29 0.32 0.34 0.37 0.40 0.42 0.43 0.44 0.47 0.49 0.54 0.56 0.57 0.59 0.59 0.61 0.63 0.60 0.58 0.57 0.53 0.49 0.48 0.51 0.53 0.54 0.57 0.57 0.55 0.51 0.52 0.51 0.50 0.49 0.49 0.48 0.42 0.39 0.45 0.47 0.48 0.48 0.47 0.46 0.49 0.50 0.46 0.46 0.45 0.48
0.20 0.25 0.30 0.29 0.30 0.29 0.26 0.28 0.25 0.23 0.21 0.26 0.26 0.25 0.24 0.24 0.26 0.25 0.26 0.30 0.32 0.33 0.31 0.28 0.25 0.24 0.25 0.23 0.24 0.27 0.30 0.30 0.30 0.31 0.31 0.33 0.32 0.33 0.36 0.40 0.43 0.41 0.41 0.43 0.46 0.49 0.52 0.53 0.54 0.55 0.58 0.61 0.59 0.57 0.56 0.57 0.54 0.50 0.49 0.53 0.56 0.57 0.60 0.59 0.57 0.56 0.54 0.53 0.50 0.51 0.51 0.48 0.43 0.43 0.42 0.43 0.44 0.47 0.48 0.47 0.49 0.50 0.52 0.49 0.46 0.51
0.21 0.26 0.27 0.24 0.25 0.27 0.29 0.28 0.28 0.27 0.24 0.26 0.29 0.28 0.27 0.27 0.26 0.27 0.29 0.27 0.26 0.26 0.29 0.26 0.20 0.19 0.25 0.26 0.27 0.30 0.32 0.31 0.33 0.32 0.31 0.31 0.33 0.34 0.34 0.35 0.41 0.46 0.46 0.42 0.41 0.45 0.50 0.51 0.54 0.58 0.59 0.57 0.57 0.56 0.57 0.58 0.57 0.53 0.52 0.55 0.59 0.62 0.64 0.60 0.59 0.58 0.54 0.50 0.45 0.44 0.42 0.37 0.37 0.36 0.37 0.37 0.38 0.42 0.43 0.44 0.50 0.52 0.51 0.50 0.51 0.52
0.20 0.26 0.25 0.23 0.25 0.26 0.26 0.27 0.33 0.32 0.27 0.25 0.27 0.31 0.29 0.28 0.26 0.26 0.27 0.26 0.22 0.20 0.27 0.31 0.21 0.18 0.24 0.25 0.27 0.29 0.29 0.30 0.32 0.32 0.32 0.32 0.31 0.33 0.33 0.34 0.35 0.39 0.43 0.47 0.49 0.50 0.51 0.52 0.55 0.56 0.55 0.52 0.52 0.56 0.61 0.61 0.60 0.56 0.54 0.57 0.61 0.64 0.65 0.64 0.61 0.59 0.54 0.47 0.44 0.40 0.37 0.36 0.37 0.36 0.38 0.42 0.45 0.45 0.48 0.50 0.49 0.49 0.50 0.51 0.50 0.52
0.24 0.23 0.24 0.26 0.27 0.27 0.26 0.25 0.31 0.33 0.29 0.25 0.32 0.30 0.28 0.26 0.25 0.26 0.26 0.26 0.24 0.29 0.30 0.30 0.27 0.21 0.20 0.24 0.28 0.29 0.28 0.28 0.28 0.29 0.31 0.32 0.31 0.31 0.32 0.33 0.33 0.35 0.39 0.42 0.46 0.49 0.51 0.52 0.52 0.51 0.50 0.51 0.53 0.60 0.62 0.61 0.62 0.58 0.55 0.58 0.62 0.67 0.68 0.65 0.63 0.61 0.55 0.44 0.42 0.39 0.37 0.38 0.39 0.39 0.39 0.42 0.44 0.48 0.50 0.49 0.49 0.50 0.52 0.54 0.53 0.51
0.21 0.22 0.23 0.25 0.27 0.26 0.25 0.27 0.33 0.36 0.30 0.29 0.31 0.30 0.27 0.27 0.26 0.26 0.25 0.25 0.26 0.24 0.21 0.25 0.29 0.21 0.20 0.24 0.28 0.28 0.24 0.24 0.23 0.25 0.26 0.28 0.28 0.28 0.29 0.32 0.33 0.34 0.38 0.42 0.45 0.47 0.48 0.50 0.50 0.50 0.50 0.53 0.58 0.59 0.59 0.59 0.62 0.63 0.59 0.59 0.63 0.66 0.69 0.66 0.61 0.58 0.53 0.45 0.42 0.39 0.38 0.38 0.41 0.44 0.43 0.45 0.48 0.47 0.49 0.46 0.48 0.48 0.50 0.54 0.55 0.55
0.22 0.22 0.24 0.28 0.30 0.27 0.31 0.33 0.35 0.34 0.26 0.29 0.31 0.32 0.29 0.28 0.27 0.25 0.23 0.23 0.24 0.22 0.19 0.21 0.24 0.18 0.18 0.22 0.20 0.22 0.21 0.18 0.20 0.24 0.25 0.26 0.26 0.26 0.27 0.29 0.31 0.34 0.38 0.42 0.44 0.46 0.47 0.49 0.48 0.48 0.50 0.54 0.55 0.58 0.61 0.62 0.64 0.66 0.62 0.59 0.61 0.65 0.68 0.65 0.60 0.55 0.50 0.46 0.45 0.41 0.38 0.37 0.41 0.44 0.45 0.46 0.46 0.46 0.46 0.43 0.45 0.47 0.48 0.51 0.53 0.54
0.22 0.25 0.28 0.25 0.26 0.31 0.33 0.33 0.34 0.32 0.29 0.31 0.28 0.24 0.24 0.24 0.23 0.23 0.23 0.22 0.20 0.17 0.19 0.22 0.24 0.21 0.16 0.17 0.18 0.16 0.18 0.20 0.23 0.25 0.26 0.27 0.27 0.26 0.26 0.27 0.30 0.33 0.37 0.40 0.44 0.47 0.48 0.49 0.50 0.53 0.52 0.53 0.58 0.61 0.61 0.62 0.65 0.67 0.65 0.61 0.59 0.64 0.68 0.67 0.60 0.53 0.47 0.47 0.48 0.44 0.40 0.38 0.40 0.43 0.43 0.43 0.44 0.45 0.44 0.42 0.42 0.44 0.46 0.48 0.51 0.52
0.19 0.22 0.23 0.25 0.28 0.29 0.31 0.29 0.33 0.34 0.32 0.28 0.23 0.21 0.20 0.19 0.21 0.20 0.20 0.21 0.15 0.13 0.17 0.20 0.20 0.21 0.15 0.14 0.18 0.22 0.24 0.26 0.25 0.24 0.25 0.26 0.26 0.26 0.28 0.29 0.31 0.33 0.36 0.40 0.44 0.46 0.50 0.53 0.55 0.56 0.54 0.55 0.57 0.60 0.60 0.61 0.64 0.65 0.65 0.63 0.59 0.63 0.68 0.68 0.63 0.54 0.49 0.49 0.50 0.48 0.44 0.42 0.43 0.44 0.43 0.42 0.42 0.44 0.42 0.42 0.41 0.43 0.45 0.46 0.49 0.50
0.15 0.17 0.22 0.23 0.29 0.27 0.27 0.24 0.26 0.28 0.28 0.24 0.22 0.21 0.17 0.17 0.17 0.14 0.17 0.14 0.14 0.13 0.16 0.18 0.20 0.17 0.17 0.17 0.20 0.25 0.27 0.27 0.27 0.27 0.26 0.27 0.26 0.27 0.28 0.32 0.35 0.35 0.36 0.40 0.43 0.46 0.49 0.50 0.51 0.52 0.54 0.56 0.57 0.56 0.58 0.59 0.61 0.63 0.65 0.64 0.62 0.63 0.68 0.69 0.65 0.56 0.53 0.52 0.51 0.49 0.47 0.44 0.46 0.46 0.44 0.43 0.43 0.45 0.43 0.43 0.42 0.42 0.41 0.44 0.45 0.47
0.16 0.18 0.19 0.21 0.22 0.25 0.25 0.20 0.21 0.21 0.24 0.22 0.20 0.19 0.17 0.15 0.14 0.12 0.14 0.16 0.16 0.17 0.19 0.17 0.21 0.15 0.19 0.21 0.27 0.27 0.28 0.31 0.31 0.31 0.31 0.30 0.30 0.30 0.30 0.31 0.32 0.35 0.38 0.42 0.44 0.46 0.47 0.48 0.50 0.52 0.53 0.53 0.54 0.56 0.56 0.59 0.61 0.62 0.63 0.64 0.62 0.62 0.67 0.69 0.66 0.61 0.57 0.56 0.54 0.52 0.50 0.49 0.48 0.46 0.46 0.45 0.44 0.45 0.46 0.46 0.44 0.43 0.43 0.43 0.43 0.45
0.13 0.14 0.17 0.20 0.19 0.26 0.25 0.25 0.25 0.24 0.23 0.22 0.22 0.20 0.18 0.18 0.15 0.12 0.13 0.12 0.13 0.14 0.17 0.24 0.16 0.15 0.13 0.21 0.30 0.32 0.34 0.34 0.35 0.34 0.34 0.34 0.33 0.33 0.34 0.33 0.33 0.34 0.36 0.40 0.47 0.48 0.47 0.48 0.50 0.51 0.53 0.54 0.55 0.56 0.57 0.58 0.60 0.62 0.63 0.64 0.63 0.63 0.67 0.68 0.66 0.64 0.62 0.61 0.59 0.55 0.54 0.54 0.54 0.50 0.47 0.46 0.46 0.46 0.47 0.49 0.47 0.46 0.47 0.46 0.46 0.46
0.15 0.14 0.19 0.25 0.25 0.26 0.24 0.27 0.28 0.24 0.22 0.24 0.23 0.23 0.19 0.18 0.20 0.15 0.16 0.15 0.15 0.16 0.16 0.18 0.17 0.22 0.20 0.29 0.33 0.35 0.35 0.34 0.35 0.34 0.34 0.34 0.35 0.34 0.33 0.33 0.34 0.36 0.39 0.39 0.41 0.45 0.51 0.54 0.55 0.53 0.53 0.55 0.56 0.57 0.57 0.58 0.60 0.62 0.62 0.64 0.65 0.65 0.67 0.68 0.67 0.64 0.63 0.63 0.63 0.60 0.56 0.56 0.56 0.55 0.54 0.51 0.49 0.49 0.51 0.51 0.49 0.47 0.48 0.48 0.49 0.50
0.17 0.15 0.21 0.22 0.24 0.24 0.24 0.25 0.24 0.26 0.18 0.23 0.21 0.18 0.19 0.23 0.20 0.17 0.18 0.20 0.19 0.17 0.15 0.21 0.19 0.21 0.25 0.27 0.31 0.31 0.30 0.32 0.32 0.33 0.34 0.35 0.35 0.34 0.34 0.34 0.34 0.35 0.38 0.41 0.44 0.46 0.48 0.51 0.55 0.59 0.58 0.56 0.56 0.57 0.58 0.59 0.60 0.60 0.61 0.63 0.65 0.68 0.71 0.71 0.71 0.67 0.65 0.66 0.65 0.63 0.60 0.60 0.59 0.56 0.52 0.51 0.51 0.51 0.52 0.53 0.52 0.50 0.49 0.50 0.51 0.52
0.16 0.16 0.23 0.22 0.21 0.25 0.28 0.26 0.24 0.24 0.24 0.23 0.19 0.23 0.27 0.31 0.25 0.18 0.13 0.16 0.15 0.13 0.14 0.18 0.16 0.18 0.18 0.18 0.28 0.27 0.25 0.27 0.29 0.31 0.32 0.34 0.36 0.34 0.35 0.35 0.35 0.34 0.35 0.37 0.40 0.45 0.49 0.52 0.53 0.55 0.58 0.61 0.64 0.64 0.62 0.60 0.62 0.63 0.64 0.65 0.66 0.70 0.71 0.73 0.74 0.71 0.68 0.67 0.67 0.66 0.63 0.63 0.61 0.57 0.54 0.53 0.52 0.54 0.53 0.54 0.54 0.53 0.51 0.50 0.52 0.52
0.21 0.15 0.18 0.23 0.23 0.26 0.28 0.26 0.24 0.26 0.27 0.23 0.22 0.31 0.22 0.20 0.18 0.23 0.17 0.12 0.12 0.12 0.14 0.16 0.18 0.18 0.18 0.18 0.24 0.24 0.23 0.24 0.25 0.28 0.29 0.31 0.33 0.34 0.34 0.35 0.37 0.37 0.36 0.36 0.36 0.38 0.42 0.47 0.51 0.55 0.59 0.61 0.63 0.64 0.67 0.73 0.75 0.73 0.72 0.71 0.71 0.69 0.73 0.76 0.78 0.76 0.73 0.71 0.70 0.70 0.66 0.64 0.63 0.60 0.57 0.56 0.55 0.56 0.54 0.54 0.55 0.54 0.54 0.54 0.54 0.54
0.24 0.16 0.17 0.24 0.23 0.26 0.26 0.25 0.20 0.22 0.26 0.28 0.27 0.25 0.27 0.23 0.20 0.18 0.20 0.20 0.17 0.13 0.13 0.13 0.16 0.14 0.19 0.20 0.23 0.23 0.23 0.24 0.26 0.27 0.29 0.30 0.31 0.33 0.33 0.33 0.34 0.35 0.36 0.36 0.36 0.36 0.36 0.39 0.46 0.54 0.58 0.59 0.63 0.66 0.70 0.72 0.73 0.71 0.73 0.74 0.73 0.75 0.78 0.80 0.80 0.81 0.77 0.73 0.71 0.71 0.71 0.69 0.67 0.64 0.60 0.59 0.57 0.56 0.55 0.56 0.57 0.57 0.56 0.56 0.56 0.55
0.23 0.24 0.15 0.22 0.26 0.25 0.20 0.23 0.21 0.23 0.22 0.23 0.22 0.22 0.22 0.21 0.26 0.22 0.21 0.18 0.16 0.14 0.13 0.12 0.11 0.14 0.18 0.23 0.24 0.24 0.24 0.26 0.26 0.26 0.28 0.29 0.31 0.32 0.33 0.33 0.34 0.35 0.35 0.36 0.37 0.37 0.38 0.39 0.41 0.47 0.55 0.60 0.64 0.68 0.70 0.72 0.74 0.75 0.76 0.75 0.77 0.77 0.77 0.78 0.80 0.80 0.78 0.77 0.73 0.72 0.71 0.69 0.68 0.66 0.65 0.63 0.61 0.58 0.57 0.57 0.59 0.59 0.59 0.59 0.56 0.56
0.24 0.24 0.18 0.21 0.21 0.20 0.22 0.26 0.26 0.26 0.26 0.24 0.23 0.21 0.22 0.20 0.19 0.17 0.16 0.23 0.20 0.16 0.13 0.13 0.12 0.17 0.23 0.30 0.28 0.27 0.27 0.26 0.26 0.26 0.26 0.27 0.29 0.30 0.31 0.32 0.34 0.34 0.36 0.37 0.37 0.39 0.40 0.41 0.42 0.42 0.45 0.52 0.57 0.61 0.63 0.68 0.73 0.76 0.77 0.77 0.79 0.80 0.80 0.80 0.81 0.82 0.82 0.81 0.79 0.73 0.71 0.71 0.71 0.69 0.67 0.65 0.63 0.61 0.59 0.59 0.60 0.62 0.62 0.59 0.58 0.58
0.27 0.26 0.23 0.20 0.21 0.22 0.26 0.28 0.30 0.29 0.28 0.27 0.25 0.23 0.25 0.23 0.21 0.18 0.14 0.17 0.21 0.20 0.21 0.19 0.16 0.17 0.28 0.32 0.30 0.29 0.29 0.28 0.28 0.27 0.27 0.27 0.28 0.30 0.31 0.33 0.35 0.36 0.36 0.37 0.38 0.39 0.41 0.42 0.44 0.45 0.45 0.47 0.52 0.58 0.61 0.62 0.65 0.69 0.74 0.79 0.80 0.78 0.78 0.81 0.83 0.86 0.89 0.89 0.85 0.81 0.77 0.76 0.73 0.71 0.68 0.67 0.65 0.63 0.62 0.62 0.63 0.65 0.62 0.60 0.60 0.60
0.33 0.23 0.20 0.21 0.24 0.27 0.28 0.30 0.30 0.29 0.27 0.24 0.24 0.24 0.22 0.20 0.21 0.19 0.18 0.18 0.15 0.17 0.18 0.19 0.16 0.19 0.30 0.33 0.32 0.31 0.30 0.30 0.30 0.29 0.28 0.29 0.30 0.31 0.33 0.35 0.35 0.36 0.37 0.39 0.40 0.40 0.42 0.44 0.44 0.44 0.46 0.46 0.47 0.51 0.57 0.61 0.65 0.66 0.68 0.72 0.77 0.78 0.78 0.79 0.79 0.81 0.82 0.82 0.86 0.88 0.87 0.81 0.77 0.74 0.71 0.69 0.68 0.66 0.65 0.66 0.66 0.67 0.64 0.63 0.63 0.59
0.18 0.23 0.21 0.19 0.18 0.19 0.21 0.24 0.25 0.27 0.26 0.23 0.22 0.24 0.24 0.24 0.23 0.22 0.22 0.23 0.16 0.16 0.16 0.15 0.13 0.18 0.29 0.32 0.31 0.30 0.29 0.27 0.27 0.28 0.29 0.28 0.30 0.32 0.33 0.36 0.37 0.37 0.38 0.38 0.39 0.40 0.40 0.41 0.42 0.43 0.44 0.46 0.47 0.48 0.50 0.53 0.59 0.65 0.69 0.70 0.71 0.75 0.80 0.82 0.81 0.78 0.78 0.77 0.76 0.82 0.86 0.87 0.84 0.79 0.75 0.72 0.72 0.71 0.69 0.68 0.68 0.68 0.66 0.65 0.64 0.61
0.20 0.21 0.19 0.14 0.12 0.11 0.11 0.12 0.13 0.15 0.18 0.20 0.21 0.21 0.22 0.22 0.21 0.20 0.16 0.17 0.14 0.16 0.18 0.15 0.13 0.20 0.28 0.30 0.30 0.29 0.28 0.27 0.28 0.28 0.30 0.30 0.30 0.32 0.33 0.34 0.36 0.37 0.38 0.40 0.39 0.39 0.40 0.41 0.42 0.42 0.41 0.42 0.45 0.49 0.50 0.51 0.53 0.55 0.60 0.69 0.74 0.74 0.77 0.81 0.84 0.82 0.79 0.77 0.76 0.79 0.82 0.85 0.86 0.84 0.84 0.80 0.75 0.74 0.72 0.71 0.70 0.69 0.69 0.67 0.65 0.63
0.22 0.24 0.21 0.19 0.16 0.14 0.15 0.16 0.18 0.19 0.17 0.14 0.17 0.18 0.19 0.20 0.20 0.19 0.19 0.16 0.14 0.15 0.14 0.14 0.15 0.17 0.22 0.24 0.25 0.25 0.27 0.27 0.27 0.29 0.28 0.29 0.31 0.32 0.33 0.34 0.35 0.38 0.39 0.39 0.40 0.43 0.42 0.40 0.40 0.40 0.40 0.41 0.41 0.43 0.45 0.47 0.49 0.51 0.54 0.57 0.65 0.75 0.79 0.80 0.81 0.82 0.80 0.77 0.73 0.73 0.80 0.84 0.87 0.88 0.87 0.89 0.86 0.82 0.78 0.73 0.72 0.70 0.69 0.69 0.65 0.61
0.24 0.20 0.21 0.20 0.19 0.19 0.19 0.19 0.19 0.19 0.16 0.16 0.15 0.16 0.18 0.17 0.17 0.16 0.15 0.14 0.18 0.16 0.12 0.15 0.17 0.16 0.16 0.21 0.23 0.24 0.26 0.28 0.29 0.29 0.29 0.30 0.30 0.31 0.32 0.33 0.33 0.33 0.34 0.36 0.36 0.36 0.37 0.40 0.40 0.40 0.40 0.39 0.39 0.41 0.42 0.44 0.45 0.47 0.49 0.52 0.58 0.65 0.73 0.80 0.83 0.82 0.80 0.79 0.75 0.72 0.73 0.78 0.85 0.84 0.80 0.82 0.88 0.87 0.82 0.76 0.75 0.74 0.73 0.70 0.65 0.63
0.22 0.19 0.22 0.22 0.20 0.21 0.21 0.21 0.22 0.21 0.20 0.19 0.19 0.18 0.18 0.18 0.18 0.16 0.16 0.18 0.18 0.15 0.12 0.15 0.18 0.17 0.18 0.21 0.22 0.23 0.25 0.26 0.28 0.30 0.31 0.32 0.33 0.33 0.33 0.32 0.32 0.32 0.32 0.32 0.33 0.35 0.35 0.35 0.37 0.38 0.38 0.38 0.38 0.35 0.35 0.36 0.38 0.41 0.43 0.46 0.51 0.58 0.64 0.71 0.77 0.80 0.82 0.81 0.78 0.75 0.76 0.79 0.84 0.89 0.83 0.82 0.81 0.82 0.77 0.74 0.74 0.75 0.74 0.71 0.69 0.67
0.25 0.21 0.23 0.23 0.21 0.22 0.22 0.22 0.23 0.22 0.21 0.21 0.20 0.20 0.20 0.20 0.19 0.19 0.18 0.19 0.19 0.17 0.17 0.16 0.17 0.17 0.19 0.23 0.26 0.28 0.30 0.30 0.30 0.32 0.32 0.31 0.31 0.31 0.31 0.30 0.31 0.31 0.31 0.31 0.32 0.33 0.34 0.35 0.36 0.36 0.38 0.38 0.36 0.35 0.34 0.34 0.34 0.35 0.37 0.40 0.43 0.47 0.56 0.66 0.69 0.72 0.76 0.78 0.80 0.81 0.81 0.80 0.81 0.83 0.83 0.80 0.82 0.83 0.78 0.73 0.73 0.75 0.76 0.74 0.72 0.69
0.25 0.21 0.25 0.24 0.21 0.20 0.22 0.23 0.24 0.23 0.22 0.20 0.22 0.22 0.21 0.21 0.21 0.21 0.20 0.20 0.20 0.18 0.18 0.18 0.17 0.16 0.21 0.26 0.29 0.34 0.34 0.34 0.33 0.29 0.29 0.30 0.30 0.30 0.29 0.29 0.30 0.30 0.31 0.31 0.31 0.31 0.32 0.32 0.33 0.34 0.34 0.35 0.35 0.34 0.32 0.32 0.33 0.34 0.34 0.35 0.38 0.40 0.45 0.52 0.58 0.66 0.70 0.72 0.76 0.79 0.81 0.81 0.81 0.81 0.80 0.81 0.82 0.82 0.75 0.72 0.71 0.74 0.77 0.75 0.73 0.70
0.24 0.21 0.25 0.24 0.20 0.18 0.22 0.22 0.23 0.23 0.22 0.20 0.20 0.21 0.21 0.21 0.19 0.20 0.19 0.20 0.18 0.16 0.17 0.17 0.15 0.15 0.23 0.29 0.31 0.32 0.30 0.28 0.27 0.28 0.28 0.29 0.29 0.30 0.29 0.30 0.30 0.31 0.31 0.31 0.31 0.30 0.30 0.29 0.29 0.29 0.30 0.31 0.31 0.32 0.33 0.33 0.32 0.32 0.31 0.32 0.34 0.38 0.42 0.46 0.49 0.54 0.61 0.68 0.74 0.77 0.77 0.78 0.81 0.81 0.81 0.82 0.79 0.79 0.72 0.72 0.71 0.70 0.73 0.74 0.72 0.71
0.20 0.19 0.18 0.19 0.18 0.16 0.20 0.23 0.22 0.23 0.21 0.18 0.17 0.19 0.21 0.22 0.22 0.23 0.22 0.21 0.19 0.19 0.16 0.14 0.15 0.18 0.24 0.29 0.28 0.29 0.28 0.27 0.27 0.27 0.28 0.30 0.31 0.31 0.31 0.30 0.30 0.31 0.31 0.30 0.28 0.28 0.28 0.29 0.30 0.30 0.31 0.31 0.31 0.31 0.32 0.34 0.33 0.32 0.31 0.30 0.32 0.36 0.38 0.42 0.46 0.49 0.53 0.60 0.67 0.73 0.76 0.78 0.78 0.79 0.82 0.80 0.90 0.83 0.81 0.79 0.77 0.72 0.69 0.68 0.70 0.67
0.18 0.17 0.16 0.18 0.15 0.14 0.17 0.19 0.21 0.18 0.13 0.12 0.18 0.22 0.22 0.21 0.21 0.19 0.19 0.19 0.20 0.20 0.19 0.20 0.20 0.24 0.27 0.27 0.26 0.25 0.25 0.25 0.25 0.27 0.31 0.30 0.30 0.31 0.31 0.30 0.30 0.30 0.30 0.30 0.30 0.29 0.30 0.30 0.31 0.32 0.33 0.33 0.32 0.32 0.33 0.33 0.33 0.33 0.34 0.34 0.34 0.34 0.36 0.40 0.44 0.48 0.50 0.54 0.59 0.65 0.71 0.74 0.77 0.77 0.78 0.80 0.80 0.81 0.80 0.81 0.78 0.76 0.72 0.67 0.68 0.65
0.16 0.17 0.16 0.18 0.14 0.12 0.15 0.16 0.14 0.12 0.11 0.18 0.23 0.24 0.24 0.23 0.22 0.19 0.19 0.20 0.22 0.23 0.23 0.22 0.24 0.25 0.26 0.27 0.27 0.27 0.28 0.29 0.30 0.29 0.30 0.34 0.34 0.30 0.27 0.26 0.26 0.26 0.25 0.25 0.25 0.26 0.27 0.28 0.29 0.31 0.32 0.33 0.33 0.32 0.30 0.28 0.29 0.31 0.32 0.33 0.33 0.34 0.36 0.38 0.42 0.47 0.50 0.52 0.56 0.61 0.66 0.69 0.71 0.76 0.79 0.79 0.77 0.76 0.76 0.78 0.78 0.74 0.71 0.67 0.62 0.59
0.18 0.18 0.18 0.17 0.16 0.16 0.13 0.13 0.10 0.09 0.16 0.20 0.22 0.23 0.26 0.25 0.24 0.21 0.19 0.21 0.23 0.23 0.24 0.22 0.26 0.28 0.28 0.28 0.28 0.30 0.31 0.31 0.31 0.30 0.31 0.34 0.34 0.28 0.25 0.24 0.25 0.25 0.25 0.26 0.27 0.27 0.27 0.28 0.29 0.29 0.30 0.33 0.33 0.32 0.31 0.29 0.30 0.30 0.30 0.34 0.35 0.34 0.36 0.38 0.40 0.44 0.50 0.53 0.57 0.61 0.65 0.67 0.70 0.75 0.76 0.78 0.75 0.73 0.73 0.74 0.74 0.68 0.66 0.63 0.60 0.59
0.20 0.20 0.19 0.16 0.18 0.12 0.12 0.12 0.11 0.14 0.13 0.16 0.17 0.21 0.24 0.21 0.21 0.19 0.15 0.17 0.24 0.26 0.26 0.25 0.27 0.28 0.28 0.28 0.29 0.31 0.32 0.31 0.26 0.25 0.31 0.33 0.31 0.29 0.27 0.26 0.27 0.27 0.27 0.28 0.29 0.29 0.31 0.32 0.32 0.33 0.34 0.33 0.32 0.31 0.31 0.31 0.31 0.31 0.31 0.32 0.34 0.35 0.36 0.37 0.38 0.41 0.47 0.52 0.56 0.59 0.62 0.64 0.64 0.66 0.70 0.75 0.76 0.77 0.75 0.75 0.74 0.71 0.66 0.60 0.59 0.58
0.23 0.18 0.20 0.17 0.16 0.18 0.14 0.12 0.12 0.12 0.09 0.12 0.20 0.27 0.31 0.31 0.28 0.26 0.22 0.19 0.27 0.30 0.32 0.29 0.27 0.28 0.28 0.29 0.30 0.31 0.32 0.25 0.20 0.22 0.27 0.30 0.30 0.28 0.29 0.29 0.30 0.30 0.30 0.30 0.30 0.31 0.32 0.33 0.34 0.35 0.34 0.33 0.32 0.32 0.32 0.32 0.31 0.31 0.31 0.32 0.34 0.35 0.34 0.36 0.38 0.41 0.46 0.51 0.57 0.60 0.62 0.63 0.65 0.67 0.70 0.71 0.76 0.81 0.82 0.79 0.75 0.70 0.67 0.63 0.59 0.58
0.24 0.24 0.23 0.19 0.17 0.17 0.16 0.14 0.12 0.11 0.13 0.21 0.27 0.29 0.33 0.34 0.32 0.32 0.23 0.19 0.28 0.30 0.30 0.31 0.29 0.30 0.30 0.29 0.29 0.31 0.26 0.20 0.19 0.22 0.26 0.27 0.28 0.29 0.27 0.28 0.29 0.29 0.30 0.31 0.30 0.30 0.30 0.32 0.33 0.33 0.33 0.32 0.30 0.31 0.32 0.31 0.31 0.31 0.30 0.32 0.34 0.35 0.34 0.34 0.38 0.42 0.45 0.52 0.58 0.61 0.63 0.66 0.70 0.71 0.68 0.67 0.74 0.79 0.77 0.70 0.67 0.66 0.65 0.62 0.58 0.55
0.20 0.21 0.21 0.19 0.17 0.18 0.18 0.16 0.14 0.17 0.17 0.27 0.32 0.33 0.34 0.37 0.35 0.28 0.17 0.18 0.29 0.33 0.32 0.32 0.30 0.30 0.30 0.31 0.31 0.29 0.25 0.20 0.20 0.22 0.27 0.28 0.28 0.28 0.28 0.27 0.28 0.29 0.29 0.30 0.32 0.33 0.34 0.34 0.34 0.32 0.30 0.28 0.27 0.30 0.31 0.31 0.31 0.31 0.31 0.32 0.35 0.35 0.34 0.34 0.38 0.45 0.50 0.56 0.61 0.64 0.65 0.68 0.71 0.69 0.66 0.68 0.69 0.70 0.65 0.62 0.61 0.60 0.57 0.55 0.54 0.48
0.17 0.18 0.19 0.17 0.18 0.19 0.19 0.18 0.20 0.21 0.29 0.33 0.33 0.36 0.36 0.37 0.33 0.22 0.17 0.24 0.34 0.34 0.34 0.34 0.33 0.34 0.33 0.31 0.31 0.26 0.27 0.27 0.26 0.27 0.29 0.30 0.29 0.27 0.29 0.30 0.30 0.31 0.30 0.30 0.31 0.34 0.33 0.33 0.32 0.29 0.28 0.28 0.29 0.30 0.32 0.33 0.32 0.30 0.31 0.34 0.35 0.34 0.35 0.40 0.43 0.48 0.53 0.57 0.60 0.64 0.65 0.67 0.66 0.67 0.66 0.66 0.66 0.64 0.62 0.60 0.57 0.56 0.53 0.48 0.45 0.43
0.16 0.17 0.18 0.19 0.18 0.17 0.19 0.18 0.18 0.22 0.31 0.35 0.36 0.35 0.38 0.28 0.20 0.19 0.29 0.34 0.33 0.33 0.34 0.34 0.32 0.33 0.33 0.31 0.30 0.29 0.29 0.30 0.30 0.30 0.30 0.30 0.29 0.28 0.29 0.30 0.30 0.30 0.33 0.34 0.34 0.34 0.33 0.31 0.29 0.28 0.27 0.29 0.31 0.33 0.34 0.34 0.33 0.32 0.33 0.35 0.35 0.36 0.42 0.45 0.46 0.50 0.54 0.56 0.60 0.67 0.68 0.71 0.72 0.71 0.70 0.69 0.67 0.61 0.59 0.59 0.54 0.47 0.44 0.44 0.43 0.41
0.16 0.15 0.14 0.15 0.18 0.19 0.19 0.17 0.16 0.14 0.29 0.34 0.35 0.31 0.31 0.21 0.22 0.26 0.28 0.29 0.31 0.31 0.31 0.31 0.31 0.31 0.32 0.30 0.31 0.31 0.30 0.30 0.30 0.29 0.28 0.29 0.30 0.29 0.29 0.30 0.30 0.29 0.29 0.31 0.31 0.32 0.32 0.29 0.27 0.26 0.28 0.31 0.34 0.36 0.37 0.37 0.35 0.34 0.36 0.36 0.37 0.43 0.46 0.47 0.50 0.52 0.53 0.55 0.55 0.59 0.67 0.72 0.72 0.70 0.69 0.67 0.62 0.56 0.51 0.48 0.47 0.45 0.44 0.42 0.40 0.37
0.20 0.15 0.15 0.17 0.21 0.15 0.15 0.14 0.15 0.24 0.28 0.34 0.29 0.23 0.26 0.27 0.28 0.28 0.28 0.26 0.29 0.30 0.29 0.29 0.30 0.31 0.32 0.31 0.30 0.30 0.30 0.29 0.28 0.28 0.28 0.27 0.28 0.30 0.31 0.31 0.32 0.31 0.31 0.31 0.31 0.30 0.30 0.29 0.28 0.29 0.30 0.33 0.36 0.39 0.41 0.40 0.38 0.38 0.39 0.38 0.43 0.46 0.48 0.50 0.53 0.54 0.53 0.54 0.56 0.60 0.65 0.67 0.70 0.72 0.67 0.63 0.56 0.50 0.46 0.45 0.45 0.44 0.44 0.42 0.38 0.36
0.22 0.17 0.20 0.15 0.20 0.17 0.15 0.18 0.22 0.26 0.27 0.29 0.30 0.27 0.27 0.28 0.29 0.30 0.31 0.29 0.28 0.28 0.31 0.29 0.28 0.29 0.30 0.29 0.28 0.28 0.26 0.26 0.26 0.27 0.27 0.27 0.28 0.29 0.29 0.29 0.30 0.31 0.30 0.29 0.28 0.31 0.31 0.30 0.29 0.30 0.32 0.36 0.39 0.42 0.44 0.45 0.43 0.42 0.41 0.43 0.47 0.48 0.50 0.53 0.54 0.53 0.52 0.52 0.54 0.58 0.66 0.69 0.68 0.65 0.61 0.58 0.54 0.48 0.46 0.46 0.46 0.42 0.40 0.39 0.38 0.37
0.21 0.21 0.21 0.19 0.17 0.21 0.22 0.22 0.23 0.22 0.24 0.25 0.27 0.27 0.26 0.26 0.28 0.32 0.30 0.27 0.27 0.27 0.27 0.26 0.27 0.27 0.28 0.28 0.26 0.25 0.25 0.25 0.26 0.26 0.27 0.27 0.28 0.29 0.31 0.32 0.32 0.33 0.32 0.31 0.31 0.32 0.32 0.32 0.33 0.34 0.34 0.37 0.42 0.45 0.48 0.49 0.49 0.44 0.45 0.50 0.51 0.51 0.53 0.55 0.54 0.53 0.52 0.55 0.59 0.63 0.66 0.64 0.60 0.56 0.53 0.49 0.47 0.47 0.48 0.47 0.43 0.39 0.38 0.39 0.38 0.36
0.20 0.21 0.19 0.16 0.19 0.17 0.13 0.19 0.18 0.19 0.21 0.22 0.23 0.24 0.25 0.25 0.27 0.30 0.27 0.26 0.26 0.26 0.26 0.27 0.27 0.27 0.26 0.26 0.25 0.24 0.24 0.25 0.25 0.26 0.27 0.28 0.27 0.28 0.30 0.31 0.32 0.33 0.32 0.32 0.34 0.34 0.34 0.34 0.34 0.35 0.38 0.40 0.46 0.49 0.51 0.51 0.52 0.51 0.52 0.52 0.54 0.55 0.56 0.55 0.55 0.54 0.55 0.55 0.58 0.61 0.60 0.54 0.51 0.49 0.47 0.46 0.46 0.46 0.45 0.43 0.41 0.40 0.39 0.37 0.36 0.33
0.16 0.25 0.18 0.18 0.18 0.16 0.15 0.20 0.21 0.22 0.22 0.23 0.23 0.21 0.21 0.24 0.26 0.28 0.28 0.28 0.27 0.27 0.27 0.26 0.27 0.26 0.27 0.25 0.25 0.25 0.25 0.26 0.25 0.25 0.26 0.27 0.28 0.29 0.30 0.32 0.33 0.33 0.34 0.35 0.36 0.37 0.37 0.37 0.38 0.39 0.42 0.46 0.50 0.54 0.55 0.54 0.54 0.54 0.55 0.56 0.57 0.57 0.57 0.55 0.54 0.53 0.53 0.57 0.57 0.54 0.52 0.50 0.49 0.47 0.46 0.45 0.44 0.43 0.43 0.43 0.42 0.40 0.37 0.36 0.33 0.31
0.19 0.22 0.15 0.18 0.17 0.19 0.22 0.22 0.22 0.22 0.21 0.21 0.22 0.23 0.24 0.25 0.26 0.26 0.27 0.27 0.27 0.26 0.25 0.26 0.27 0.26 0.26 0.25 0.26 0.27 0.27 0.26 0.27 0.27 0.27 0.26 0.28 0.30 0.31 0.32 0.34 0.34 0.34 0.34 0.36 0.39 0.39 0.41 0.42 0.45 0.48 0.52 0.56 0.56 0.57 0.59 0.60 0.60 0.59 0.58 0.59 0.58 0.56 0.53 0.53 0.55 0.55 0.52 0.53 0.53 0.51 0.50 0.48 0.47 0.45 0.44 0.45 0.44 0.43 0.41 0.41 0.39 0.37 0.36 0.34 0.32
0.22 0.18 0.21 0.21 0.18 0.16 0.16 0.17 0.20 0.16 0.15 0.18 0.20 0.22 0.24 0.26 0.26 0.25 0.25 0.25 0.25 0.24 0.24 0.24 0.24 0.25 0.27 0.27 0.28 0.29 0.27 0.26 0.27 0.29 0.28 0.28 0.29 0.32 0.34 0.34 0.34 0.34 0.35 0.37 0.40 0.42 0.45 0.47 0.48 0.49 0.52 0.56 0.60 0.62 0.66 0.66 0.65 0.64 0.64 0.61 0.59 0.58 0.54 0.51 0.50 0.52 0.52 0.54 0.54 0.52 0.49 0.48 0.48 0.46 0.45 0.44 0.43 0.42 0.43 0.44 0.42 0.39 0.35 0.33 0.35 0.35
0.19 0.19 0.19 0.17 0.17 0.16 0.19 0.21 0.22 0.22 0.21 0.20 0.21 0.24 0.25 0.27 0.27 0.26 0.24 0.23 0.24 0.25 0.26 0.25 0.24 0.24 0.25 0.28 0.30 0.29 0.28 0.28 0.28 0.31 0.32 0.32 0.34 0.36 0.37 0.36 0.34 0.35 0.36 0.40 0.43 0.46 0.48 0.50 0.52 0.55 0.58 0.61 0.64 0.67 0.67 0.67 0.66 0.65 0.64 0.60 0.58 0.56 0.55 0.57 0.58 0.58 0.58 0.57 0.52 0.50 0.49 0.47 0.46 0.45 0.44 0.43 0.43 0.42 0.40 0.39 0.39 0.38 0.36 0.35 0.35 0.35
Wind_Speed
9 10 11 12 12 13 13 13 13 12 11 10 10 10 11 11 12 13 13 13 11 11 13 15 14 14 16 16 16 16 13 13 15 15 16 18 18 18 18 19 19 20 20 19 19 19 18 18 17 17 16 15 15 15 15 14 14 14 14 14 13 13 13 12 11 11 12 12 11 11 11 11 11 11 12 12 12 13 13 14 14 15 15 16 16 17
9 10 13 13 13 13 12 12 12 11 10 10 10 11 11 12 13 13 12 13 11 11 13 13 13 14 16 17 16 15 13 13 13 13 15 18 19 19 20 20 20 20 19 19 19 19 19 18 18 18 17 16 16 16 16 15 15 15 14 14 14 13 13 12 11 11 12 11 11 11 11 11 11 11 11 12 12 12 12 13 13 14 15 15 16 16
10 12 13 13 12 11 10 10 10 11 10 10 11 11 12 12 13 13 13 12 11 10 12 12 12 15 16 17 16 15 15 15 15 14 15 18 20 20 20 21 20 19 19 20 20 20 20 19 19 19 18 17 17 17 17 16 15 15 14 14 14 13 13 12 11 11 11 11 11 11 11 11 11 11 11 11 11 11 11 11 12 12 13 14 15 16
11 12 12 10 10 10 11 10 10 11 11 11 11 11 13 13 12 13 14 14 12 11 12 12 11 14 16 15 16 16 16 16 17 17 17 18 20 22 22 22 21 21 21 21 22 21 21 20 20 19 19 18 18 17 17 17 16 15 15 15 14 14 13 12 11 12 12 11 11 11 12 11 11 11 11 10 10 10 10 10 11 11 11 12 14 15
13 13 11 9 9 11 12 12 12 12 13 13 13 12 13 14 14 15 15 15 14 13 13 12 12 14 15 15 16 16 15 16 18 18 19 19 20 22 23 23 22 23 22 23 23 22 22 21 21 20 19 19 18 18 18 18 17 16 15 15 15 14 13 13 12 12 12 12 11 12 12 12 11 11 10 10 10 10 9 9 10 10 10 11 12 13
14 13 11 11 12 12 13 13 13 13 14 14 15 14 14 15 15 16 15 14 14 15 15 14 14 15 15 14 16 16 15 17 18 19 21 21 20 21 23 23 24 24 24 24 23 23 22 22 21 20 19 19 19 19 19 18 18 17 16 16 15 15 14 13 13 13 13 13 12 13 13 12 11 11 11 10 10 10 10 9 9 9 9 10 11 12
13 13 11 12 13 12 13 14 14 13 13 14 15 15 14 13 13 14 15 14 14 16 16 14 15 16 15 15 17 16 16 18 19 20 22 23 22 21 22 24 24 25 25 23 23 23 23 22 20 19 20 20 19 19 18 18 18 18 17 17 16 16 15 14 14 13 13 13 13 13 13 13 12 12 12 11 11 11 10 10 9 9 9 9 9 10
12 12 12 12 12 12 13 14 14 13 12 15 15 13 13 13 13 14 14 15 16 16 16 14 15 16 17 17 18 17 18 20 21 22 23 24 25 24 23 24 24 24 24 23 22 23 22 22 21 20 20 19 18 17 17 18 18 18 18 17 17 16 15 15 14 14 14 14 13 13 13 13 13 12 12 12 12 12 12 11 11 10 9 9 9 9
12 12 13 12 11 12 13 14 13 12 13 15 15 13 13 13 13 13 13 14 15 14 15 15 14 15 17 18 18 17 19 21 21 22 22 24 25 25 24 24 23 22 22 23 23 23 22 21 20 20 19 18 18 17 17 18 18 18 18 18 17 17 16 15 15 15 14 14 14 13 13 13 13 13 13 13 13 13 13 12 12 11 11 10 10 10
14 13 13 11 10 11 13 12 12 12 13 14 13 12 13 12 12 12 12 13 13 13 16 16 14 14 16 18 16 15 17 18 18 18 18 21 23 22 22 22 22 21 21 23 23 22 21 20 20 19 18 18 18 17 17 17 17 18 18 18 18 17 17 16 15 15 15 14 14 14 14 13 13 13 13 13 13 13 13 13 13 12 12 12 11 11
15 14 12 11 12 12 12 12 12 12 13 12 11 11 12 12 12 11 11 11 12 14 16 17 15 14 15 15 13 11 13 13 14 15 16 18 19 19 20 20 20 20 21 21 22 21 21 20 19 18 18 18 18 18 18 17 17 17 18 18 18 18 17 16 15 15 15 15 14 14 14 14 14 14 14 14 14 14 14 14 14 13 13 13 13 12
14 14 13 13 13 12 11 12 12 12 12 10 10 11 11 12 12 11 12 11 12 14 15 15 14 13 13 13 11 11 13 13 13 15 15 16 16 16 16 16 17 20 21 21 21 20 20 20 19 18 18 18 17 18 19 19 18 17 18 18 18 18 17 16 16 16 16 15 15 15 14 14 15 15 15 15 14 15 14 14 14 14 13 13 13 13
12 14 14 13 13 11 11 12 13 12 12 11 11 10 10 11 10 11 12 12 13 14 14 13 13 12 14 14 13 13 14 14 14 14 15 15 14 13 12 13 15 17 20 21 20 19 19 19 19 19 19 18 18 19 20 20 19 18 18 18 18 18 17 17 17 17 17 16 16 15 15 15 15 16 16 16 15 15 15 15 14 14 14 14 13 13
10 12 12 12 13 12 11 12 13 13 12 12 12 12 11 10 9 11 13 12 13 14 13 13 13 14 14 12 12 13 14 14 13 13 12 11 10 9 10 11 12 14 17 19 20 19 19 19 19 19 19 19 19 19 19 20 20 19 19 19 19 19 18 17 17 17 18 17 17 16 15 15 16 16 17 16 16 16 15 15 15 15 14 14 14 14
9 11 11 11 11 11 10 11 12 12 12 13 13 12 12 11 11 12 13 12 13 13 12 12 12 12 11 10 12 14 13 12 12 11 9 8 7 7 8 8 9 12 15 17 19 20 20 20 19 19 19 19 19 19 19 20 20 20 19 20 20 19 19 19 18 18 18 18 18 17 16 16 16 16 17 17 16 16 16 16 15 15 15 15 15 14
10 12 13 12 11 10 10 11 11 10 11 13 12 11 12 13 13 12 12 12 13 12 12 12 12 13 12 11 13 12 10 10 11 11 8 8 7 6 6 7 7 9 12 15 18 20 20 20 20 19 19 19 20 20 20 20 20 20 20 20 20 20 20 19 19 19 19 19 18 18 17 17 16 16 17 17 17 17 16 16 16 15 15 15 15 15
11 13 14 13 12 11 12 12 12 11 11 12 12 12 14 13 11 12 13 12 10 11 13 12 13 14 12 11 12 11 10 11 12 12 10 10 9 7 7 8 7 7 8 11 14 16 18 19 20 19 19 19 19 20 20 20 21 21 21 20 20 20 20 20 20 20 19 19 19 19 18 17 17 17 17 18 17 17 17 17 17 16 16 15 16 16
12 14 15 12 12 13 11 11 11 12 12 12 13 13 13 11 10 11 12 11 10 12 14 13 14 15 12 12 13 11 10 11 12 12 11 10 10 10 10 9 9 9 8 8 9 11 14 17 19 20 20 19 19 20 21 21 21 22 22 21 21 21 21 21 21 21 20 20 20 20 19 19 18 18 18 18 18 18 17 18 18 17 17 17 16 17
13 15 16 14 13 14 12 11 12 14 13 12 13 13 12 11 12 12 12 12 12 13 14 14 15 15 15 15 13 11 10 11 11 11 10 10 10 10 10 9 9 9 10 10 10 11 12 14 17 19 20 21 21 21 21 21 22 23 23 22 22 22 22 22 22 22 21 21 21 21 21 20 20 20 19 19 18 18 19 19 19 18 18 18 18 18
13 14 16 15 15 15 13 13 14 15 14 13 12 13 13 12 12 12 12 13 13 14 15 15 15 15 16 16 14 13 13 12 10 10 10 10 10 10 10 10 10 10 11 12 12 12 12 13 15 17 19 21 21 21 21 21 22 23 23 23 23 22 22 22 22 22 22 22 21 21 21 21 21 21 21 20 20 20 20 20 20 19 19 19 19 19
14 14 16 16 15 15 14 14 15 15 14 14 13 14 14 14 14 14 14 14 14 14 14 15 16 17 17 16 15 15 15 14 12 12 12 12 12 11 11 12 12 12 13 13 13 13 13 13 14 14 16 18 19 20 21 22 23 23 23 23 23 23 23 23 23 23 23 23 22 22 21 22 22 22 22 21 21 21 20 20 20 20 20 20 20 20
15 16 16 17 17 16 17 17 16 15 15 15 15 16 16 16 15 14 16 16 15 15 15 15 16 17 16 15 15 15 15 15 15 14 14 14 13 12 12 12 12 13 14 15 15 15 15 15 14 13 13 15 17 19 20 21 23 24 25 25 25 25 25 24 24 24 24 24 23 23 22 22 23 23 23 22 21 21 21 21 20 20 21 21 21 21
17 17 17 18 19 18 19 19 19 17 16 15 17 17 17 17 16 15 17 18 17 18 17 16 17 18 17 16 16 16 16 16 16 15 15 15 14 13 12 12 12 12 13 15 16 16 16 16 16 15 14 14 15 17 19 20 22 24 25 26 26 26 26 25 25 25 26 26 26 25 24 24 24 24 24 23 22 22 22 21 21 21 21 21 21 21
18 18 18 19 20 20 20 20 19 19 16 16 18 18 17 18 17 17 18 19 19 21 19 17 18 19 18 18 17 17 18 17 17 16 15 15 15 14 13 13 13 13 13 14 15 16 17 17 18 18 17 17 17 17 19 21 22 24 25 25 27 28 28 27 27 27 28 27 27 28 27 26 25 25 25 25 24 23 23 23 22 22 22 22 22 21
19 19 18 19 19 20 20 19 19 20 19 19 20 20 19 19 18 19 20 19 21 22 21 20 21 20 19 18 18 18 18 19 18 18 17 16 16 16 16 16 15 15 15 15 15 16 16 17 18 18 19 20 20 20 20 21 23 24 26 27 28 29 30 30 30 29 29 28 28 28 29 28 27 27 26 26 25 24 25 24 24 24 23 23 23 22
20 19 19 19 19 20 20 20 21 21 21 21 21 21 21 20 19 21 21 20 21 22 21 21 22 22 21 20 21 21 20 21 21 19 18 18 18 18 18 18 19 18 18 18 18 18 18 18 18 19 20 20 21 22 22 22 23 24 26 28 29 30 31 32 32 31 31 30 29 29 30 30 29 28 28 27 26 25 26 26 25 25 24 24 24 23
19 20 20 20 21 22 22 23 23 22 22 23 22 22 22 22 21 21 21 22 23 23 24 25 24 24 24 24 24 23 21 22 22 21 20 20 20 20 19 20 20 20 20 20 20 21 21 21 22 22 22 22 22 23 23 24 24 25 26 27 29 30 31 32 32 33 32 31 30 30 31 31 31 30 30 29 28 27 27 27 26 26 26 25 25 24
19 21 22 21 23 24 23 24 23 22 23 24 23 22 22 22 22 21 22 24 22 22 26 27 25 26 27 26 26 26 24 23 23 23 23 23 22 22 22 22 22 22 22 22 22 22 23 24 25 25 25 25 25 25 26 26 26 27 27 28 28 30 31 32 33 33 34 34 33 32 32 32 33 33 32 31 30 29 29 28 28 28 27 27 26 25
19 22 22 22 24 25 24 24 23 23 23 24 23 23 22 22 22 22 23 24 22 24 28 27 25 26 28 27 28 28 26 25 25 25 25 25 24 24 23 23 23 23 24 24 24 25 25 26 27 28 28 27 26 27 28 29 29 29 30 30 30 30 31 33 34 35 35 36 36 35 35 34 35 35 34 34 33 32 31 30 30 30 29 28 27 27
20 21 22 22 23 24 25 25 24 24 25 25 25 24 23 23 23 23 23 23 23 26 28 27 26 27 28 27 28 27 26 27 26 26 25 25 24 24 24 24 24 24 25 26 26 27 28 28 29 29 30 29 29 30 30 31 32 32 32 32 32 32 32 33 35 37 38 38 38 37 37 37 37 37 36 36 36 34 33 32 31 31 30 29 28 28
20 22 22 21 23 25 25 24 24 24 26 26 26 25 24 23 24 24 24 23 23 26 27 26 26 27 27 27 27 26 26 26 26 26 26 25 25 25 25 25 26 26 27 28 28 29 29 29 30 30 31 32 33 33 33 34 34 34 34 34 35 35 35 35 36 36 37 39 39 39 38 38 38 38 38 38 38 37 35 34 32 31 31 30 29 29
22 24 24 22 24 27 25 24 25 25 26 28 28 26 25 25 24 24 24 24 24 25 24 24 25 27 26 26 26 26 26 25 25 26 27 26 27 26 26 26 27 28 29 30 30 31 31 31 31 32 33 34 35 35 35 35 35 36 36 36 37 37 37 37 37 36 37 37 38 39 39 38 38 38 39 38 38 38 36 35 33 32 32 31 30 30
23 25 25 24 26 28 26 25 25 24 26 30 29 27 26 26 25 24 24 25 25 23 23 24 26 25 24 24 24 25 26 26 26 27 27 27 27 27 27 28 29 30 31 31 32 32 32 33 33 33 34 34 35 35 36 36 36 37 37 38 38 38 38 38 38 38 38 37 37 38 38 38 38 38 37 37 37 37 35 33 32 32 33 32 31 30
24 25 26 25 26 29 27 24 23 24 27 29 27 24 24 25 25 24 25 25 25 23 23 23 23 23 22 22 23 25 26 26 27 27 27 27 27 27 27 29 30 30 31 31 32 32 33 33 34 34 35 35 35 36 36 37 37 38 38 39 39 39 39 39 39 39 38 38 38 38 38 39 39 39 38 37 37 37 36 34 33 33 33 33 32 31
23 23 24 24 25 27 26 23 23 26 27 27 25 24 24 24 23 23 24 24 23 23 22 21 22 22 23 24 24 25 26 26 27 27 27 27 26 27 28 29 30 30 31 31 32 32 33 34 34 35 35 36 36 36 37 37 38 39 40 40 40 40 39 40 40 40 39 39 39 39 38 39 39 39 38 37 37 37 37 36 35 34 33 33 33 32
21 21 22 23 23 24 23 22 24 26 26 25 24 23 23 23 21 21 24 24 24 24 23 23 24 25 25 25 26 26 26 27 27 27 28 28 27 27 28 29 30 30 31 31 32 33 33 34 35 35 36 36 36 37 37 38 38 39 40 40 40 40 40 39 40 40 40 39 39 39 38 38 37 37 36 36 36 36 36 36 36 34 33 33 33 33
20 19 20 22 22 22 22 23 25 25 26 25 24 23 22 23 23 23 24 25 25 24 23 23 25 26 26 26 26 26 26 26 27 27 27 28 28 29 29 29 30 30 31 32 33 34 34 35 35 36 36 37 37 37 38 38 38 39 40 40 40 40 40 39 40 40 39 39 39 39 38 38 37 36 35 34 34 34 34 34 33 32 31 31 31 32
19 19 19 20 21 21 22 23 23 23 24 24 23 23 23 23 24 23 23 23 24 24 23 23 24 25 25 26 26 26 25 25 26 27 27 28 29 29 30 30 31 32 32 33 34 35 35 36 36 36 37 38 38 38 38 38 39 39 39 39 38 39 39 39 39 39 39 38 39 39 38 38 37 35 34 33 33 32 31 30 29 27 27 28 29 30
19 19 18 18 20 19 20 21 21 21 22 22 22 22 22 22 22 21 19 21 23 23 22 22 24 24 25 25 26 24 24 25 26 26 26 28 29 29 30 31 32 33 34 35 35 36 36 37 37 38 38 39 39 39 39 39 39 39 39 38 38 38 39 39 39 38 38 38 38 38 38 37 35 34 33 32 33 32 30 28 27 26 26 26 27 28
18 18 17 18 20 20 19 21 20 20 20 20 20 21 21 20 19 17 18 20 22 22 22 22 23 24 24 25 24 24 24 26 26 27 27 28 29 30 31 32 33 34 35 36 36 37 37 38 39 40 40 40 41 40 40 40 40 40 40 39 38 39 39 39 38 38 38 38 38 37 37 36 35 34 33 32 33 33 32 31 29 28 28 27 27 28
18 18 18 18 19 19 19 20 20 20 20 20 20 21 20 18 17 17 19 20 20 21 21 21 23 24 24 25 25 25 26 27 28 29 29 30 31 32 33 34 35 35 35 36 37 37 38 39 40 41 42 43 42 41 41 41 41 41 40 39 39 39 39 39 38 38 37 38 38 37 36 35 34 33 32 32 32 32 31 31 30 29 29 28 27 28
17 18 18 18 18 19 19 19 20 20 20 20 20 20 20 18 18 19 21 21 21 22 22 23 24 25 26 26 27 28 29 30 31 32 32 32 33 34 34 35 35 36 36 36 37 38 39 41 42 43 44 43 42 42 41 40 41 40 40 39 39 38 38 37 37 36 36 36 36 35 34 33 33 32 31 31 30 30 29 28 28 28 27 27 26 27
17 18 19 19 19 19 19 18 18 19 19 19 19 19 19 19 20 22 23 23 24 24 25 25 26 27 28 29 30 31 32 33 33 34 34 34 35 35 36 36 36 37 37 37 38 39 40 42 43 43 43 42 41 41 40 39 40 39 39 38 38 37 36 36 35 34 33 34 34 33 33 32 31 30 30 29 28 27 27 26 25 24 24 23 23 24
19 19 19 19 19 18 18 18 18 19 19 20 20 21 22 23 24 25 25 25 25 26 26 27 28 29 30 31 32 33 34 35 35 36 36 36 36 36 37 37 37 38 38 39 39 40 40 41 42 41 41 40 39 39 38 38 38 38 37 37 36 35 33 33 32 31 30 31 30 30 30 30 29 28 28 26 24 23 23 23 22 22 22 22 22 22
20 19 20 21 21 21 22 23 23 22 23 23 23 24 25 26 27 26 25 25 26 27 27 28 30 31 31 32 34 35 35 36 37 37 37 37 37 37 37 38 38 38 39 39 39 39 40 40 40 39 39 38 37 36 36 36 35 35 35 34 33 32 30 29 28 28 28 28 27 26 26 27 27 26 25 23 21 20 19 19 19 20 21 21 21 22
23 22 22 23 24 25 25 26 26 25 25 26 26 28 29 29 28 27 27 28 29 29 30 31 32 33 33 34 35 36 37 38 38 38 38 38 38 38 38 38 38 38 37 37 37 38 38 37 37 36 35 34 34 33 33 32 32 32 32 31 30 29 29 27 26 26 26 25 25 25 25 26 26 24 22 20 19 19 18 17 17 19 20 21 21 21
23 22 22 23 25 25 25 25 25 26 27 29 30 30 30 30 29 29 30 31 31 32 33 33 34 35 35 36 37 38 39 39 39 39 39 39 39 39 37 37 36 35 35 34 35 36 35 34 33 32 32 32 31 30 29 29 29 29 29 29 28 27 27 26 25 25 24 24 25 25 26 25 24 22 20 19 19 19 18 17 17 18 20 20 20 21
22 22 23 24 25 26 26 27 28 29 31 31 30 30 29 29 30 30 31 32 33 33 34 35 35 36 36 37 38 38 39 39 39 39 39 38 37 36 35 34 33 32 32 33 34 33 32 31 30 30 29 28 27 26 26 27 26 25 25 25 25 24 24 25 25 24 24 25 25 25 25 23 22 20 19 19 18 18 18 17 17 17 18 18 19 19
23 24 24 24 25 27 27 27 28 29 29 28 28 28 28 29 30 31 32 33 33 34 35 36 36 36 36 37 37 37 38 38 37 36 36 35 34 32 31 30 30 30 31 32 32 30 29 28 27 26 25 23 22 22 22 21 19 19 20 20 21 22 22 23 23 24 25 25 24 24 23 22 20 18 18 17 16 15 15 16 16 15 16 17 17 18
22 23 23 24 26 27 26 26 26 27 27 28 28 28 29 29 30 31 32 32 33 34 35 35 35 35 34 34 34 34 34 34 33 33 32 31 30 29 28 28 28 28 29 29 28 26 25 24 22 20 19 17 17 17 15 12 11 12 14 16 18 20 22 22 22 24 25 25 25 23 21 20 18 17 16 15 14 13 13 13 13 14 14 15 16 17
22 23 24 25 26 27 28 28 28 27 28 30 30 29 29 29 30 31 32 32 33 33 32 33 33 32 31 31 31 31 31 31 30 29 29 28 27 26 26 26 26 26 26 25 23 21 20 19 17 15 14 14 14 12 10 9 8 10 13 16 18 21 22 22 23 24 25 26 25 22 20 18 16 15 14 13 13 12 11 11 11 12 13 14 15 16
Wind_Direction
243 247 249 243 242 241 239 233 231 236 237 240 243 245 252 253 256 259 260 265 260 254 254 244 242 248 246 248 252 255 260 253 246 243 240 238 237 238 238 238 238 239 242 243 241 241 243 244 245 245 246 247 250 253 255 254 254 255 254 252 251 253 255 258 260 255 250 249 248 250 251 252 253 252 252 254 255 255 255 255 254 253 252 249 247 244
246 247 248 241 238 238 239 236 232 236 240 245 249 254 259 255 256 260 260 269 268 255 257 250 242 248 248 247 251 255 259 256 247 240 236 235 237 240 240 241 242 244 246 244 242 243 244 245 246 246 246 246 249 251 251 250 251 252 251 249 248 250 253 256 258 252 249 250 250 250 250 250 251 251 252 253 254 256 256 255 253 252 252 251 249 247
253 249 247 242 236 235 240 239 235 238 242 250 254 255 257 255 259 265 262 268 269 254 255 255 246 248 249 248 253 254 252 254 254 247 242 239 240 243 244 245 247 247 248 245 243 244 244 244 245 245 246 247 249 250 248 248 249 250 249 248 248 250 252 254 255 251 250 252 252 252 250 249 250 251 251 251 253 256 256 255 254 252 251 250 249 247
247 242 242 238 232 236 246 245 238 241 246 250 251 252 256 258 261 263 264 267 267 257 251 252 252 253 253 253 254 253 252 256 259 256 251 245 245 247 247 248 248 246 246 245 244 244 244 245 245 245 246 248 249 248 246 245 246 248 247 246 247 249 250 252 254 252 251 252 253 253 251 249 251 251 251 251 253 255 255 255 254 253 251 250 248 245
243 242 245 243 237 239 246 249 243 241 250 255 252 250 254 259 258 259 264 268 267 265 258 256 263 261 257 257 256 257 259 260 261 262 259 254 250 250 249 251 250 247 245 244 243 244 244 243 243 244 246 248 247 244 243 243 244 246 245 244 245 248 249 251 254 253 251 251 251 251 249 249 251 250 250 250 251 254 255 254 254 254 252 250 248 245
246 248 251 249 247 242 241 248 245 241 251 260 256 252 253 256 259 262 267 269 266 265 263 261 262 261 260 260 257 258 263 262 262 264 262 260 257 253 252 252 251 250 248 245 243 242 242 243 242 244 245 246 244 242 241 242 242 243 244 244 244 247 248 251 254 252 250 250 248 247 246 247 249 248 247 249 249 252 253 253 253 254 253 250 246 245
249 253 255 252 250 245 242 248 248 242 249 259 258 253 254 255 258 261 262 261 259 259 262 260 254 258 264 262 258 262 266 265 266 266 263 264 262 257 254 253 250 248 246 245 243 240 240 240 240 242 243 242 241 241 241 240 240 241 242 243 243 245 248 251 253 251 249 248 245 246 246 246 248 246 246 249 250 250 254 254 253 252 253 251 247 246
251 258 262 256 252 247 245 249 248 242 244 255 257 252 252 256 257 258 256 254 255 257 263 264 254 259 266 262 261 267 269 269 270 268 266 265 263 259 256 253 249 243 238 237 238 239 239 238 238 241 242 239 239 239 239 238 238 240 241 241 242 244 248 251 251 250 247 245 243 244 246 247 248 247 247 249 250 251 254 256 255 254 253 254 252 248
252 255 259 254 251 249 248 249 245 240 248 255 254 250 255 260 259 257 253 252 256 257 261 264 259 261 266 266 268 271 269 270 270 269 266 263 262 259 255 250 246 240 235 233 234 236 238 238 238 240 239 237 236 236 236 236 237 239 239 240 242 244 246 249 250 249 246 242 242 243 245 246 247 248 248 249 250 251 254 255 255 256 255 255 254 251
252 250 251 248 248 250 251 251 242 238 251 257 253 255 264 266 263 260 253 252 259 258 255 260 261 260 267 272 274 272 267 266 267 266 264 263 264 262 255 249 243 239 235 232 233 234 235 235 236 238 238 236 236 236 236 236 236 237 239 240 241 242 244 246 249 249 244 241 241 242 244 246 247 247 248 248 250 252 254 255 255 255 255 255 254 252
257 253 250 247 247 247 249 251 245 242 252 259 260 264 268 268 265 261 257 254 261 262 259 260 256 255 269 274 269 265 263 262 265 268 267 267 272 270 260 250 241 236 234 232 232 233 233 233 235 237 238 237 237 237 237 237 237 237 237 238 238 240 242 245 248 246 243 240 240 242 244 246 246 246 247 249 250 253 255 255 255 254 254 253 253 253
267 258 252 254 252 249 251 254 255 258 260 262 264 264 263 264 262 261 264 261 260 263 263 260 255 252 261 266 267 270 269 265 264 268 270 270 275 277 267 253 242 236 233 230 230 232 232 232 235 237 238 237 238 238 236 236 236 236 236 236 237 240 242 245 246 244 243 242 241 244 247 249 248 247 248 249 250 253 254 255 255 255 254 254 253 252
272 259 257 262 258 250 251 256 261 266 265 260 259 258 258 262 262 261 263 261 259 262 263 258 255 255 256 260 268 271 270 269 267 267 271 272 275 279 272 256 246 241 236 231 229 230 232 233 237 237 236 237 239 239 236 235 234 235 235 236 236 239 242 245 246 245 244 244 243 245 248 250 249 249 249 251 252 253 254 254 255 255 255 255 254 252
278 273 269 264 262 255 248 250 255 259 259 256 254 251 249 253 259 261 261 263 263 264 263 257 255 259 259 262 266 266 270 274 273 270 273 278 281 280 274 261 249 244 240 235 233 232 233 235 238 238 235 237 240 240 238 234 234 235 236 237 237 239 241 243 245 245 246 246 246 247 249 250 251 250 250 252 253 254 254 254 255 256 256 256 255 253
270 274 266 256 261 261 252 247 246 250 256 257 255 251 247 245 250 256 256 257 260 262 263 260 257 254 252 260 268 269 273 275 270 269 276 286 289 285 281 272 255 246 241 238 237 237 238 239 240 238 236 238 240 240 239 235 235 236 238 239 239 239 240 241 243 245 246 247 247 248 249 251 252 252 252 253 254 255 255 255 257 257 258 258 257 256
265 264 262 260 262 260 259 256 249 252 260 259 255 252 252 248 248 255 256 251 255 263 264 259 256 254 252 262 272 270 272 274 271 275 283 284 288 297 294 284 268 255 246 239 238 240 242 243 243 241 239 239 239 238 238 237 235 237 238 239 239 239 239 240 242 244 245 246 247 248 249 251 253 253 253 253 255 256 256 256 258 258 259 259 259 258
266 266 268 268 266 261 259 259 258 256 257 258 257 256 259 255 248 253 260 261 260 262 263 257 256 263 262 263 270 270 273 278 277 280 282 279 284 293 289 284 278 264 251 243 240 240 240 241 243 244 244 243 240 239 239 237 236 237 238 239 239 239 240 240 242 244 245 246 247 248 250 252 253 253 253 253 254 256 258 258 259 259 260 260 260 259
263 266 270 265 260 261 258 259 267 266 256 254 256 258 262 264 258 253 257 266 266 260 263 260 256 260 258 256 266 271 273 279 279 278 277 277 280 279 275 276 276 270 261 255 249 245 244 242 242 243 245 245 244 244 242 241 241 241 240 240 239 240 241 241 242 245 246 247 248 249 250 252 254 254 254 255 256 258 259 259 260 260 260 260 260 260
265 266 270 261 254 261 264 260 266 272 267 256 253 255 259 260 261 261 258 260 262 262 266 267 261 257 253 252 257 261 263 270 272 269 268 267 267 266 267 269 270 269 266 264 261 259 257 253 248 246 244 244 245 246 246 245 246 245 244 243 242 243 244 244 245 246 247 248 249 250 251 253 255 255 255 256 258 259 259 259 260 260 260 260 260 260
269 266 268 264 256 261 268 262 258 264 268 263 259 260 260 256 256 262 262 259 260 262 266 270 268 261 256 251 247 251 257 259 260 262 259 255 255 257 261 264 266 268 267 266 266 266 266 263 258 254 249 247 247 248 247 247 247 246 245 246 246 247 248 248 247 247 248 249 250 251 252 253 255 255 255 257 258 259 259 259 259 260 260 260 260 260
272 267 266 268 264 261 263 259 253 253 257 260 261 261 262 262 261 264 265 263 261 261 262 266 268 266 261 255 250 253 256 254 252 255 252 248 249 253 258 261 263 265 265 266 267 267 269 269 268 265 260 255 252 250 250 249 249 248 247 246 247 248 249 249 249 248 248 249 250 250 252 253 255 255 255 256 258 258 259 259 259 259 260 261 261 260
271 268 266 269 268 262 258 257 254 253 253 254 256 257 258 260 261 263 266 266 263 261 260 261 266 268 263 259 258 255 253 251 250 250 250 251 251 251 256 259 259 260 261 263 265 266 268 269 270 270 266 262 258 254 253 251 249 248 248 248 248 248 249 250 251 250 250 250 251 251 252 253 254 255 255 256 257 257 257 258 258 258 259 260 260 260
268 269 268 268 266 260 258 259 260 260 258 256 259 260 259 260 260 258 261 265 264 264 263 261 265 267 261 260 263 259 254 253 253 254 255 257 257 255 254 256 257 258 259 261 263 263 264 266 267 268 267 266 264 262 260 257 253 251 250 249 249 248 249 250 251 251 251 252 252 252 253 254 254 254 254 255 257 257 256 257 258 258 258 259 260 261
268 269 269 269 268 266 264 263 262 264 262 261 264 264 261 260 259 256 258 262 263 263 263 262 264 263 257 260 264 261 260 261 261 265 263 261 260 257 254 255 257 259 260 262 262 261 262 265 266 266 267 266 266 267 266 263 261 258 255 252 251 250 251 251 251 252 252 253 253 253 253 253 253 253 254 254 256 256 256 257 257 257 258 259 260 262
269 268 267 269 271 272 271 267 264 264 263 261 262 263 262 260 260 261 263 264 264 262 258 258 262 258 252 260 268 265 267 270 270 271 267 262 261 258 256 257 258 260 262 263 263 263 263 265 265 266 267 268 268 268 269 267 266 264 262 259 256 254 253 252 252 252 252 253 254 253 251 251 252 252 253 253 255 256 257 257 257 257 258 259 261 262
268 266 265 264 264 264 266 265 263 263 262 261 260 261 263 262 260 263 265 263 262 263 259 256 260 258 253 262 269 267 268 272 272 271 267 264 262 260 259 260 259 261 263 264 265 265 265 265 266 268 270 271 271 269 268 270 270 269 267 264 261 259 255 253 253 253 253 253 255 254 251 250 250 251 252 252 253 256 256 257 257 257 258 259 260 262
266 267 265 262 262 262 263 264 264 263 262 263 261 259 261 262 262 263 263 260 260 262 262 258 258 259 259 262 266 267 269 269 268 269 269 267 267 266 265 264 263 263 264 265 266 267 266 266 267 270 272 273 274 271 270 272 273 273 272 269 266 263 259 256 254 254 254 254 254 254 252 250 249 250 252 252 251 254 255 256 256 256 258 259 260 262
267 269 267 262 263 264 263 264 265 264 263 263 262 260 259 260 261 260 259 259 258 259 262 261 258 258 260 261 263 265 265 264 263 266 267 268 269 269 268 267 268 268 267 267 268 268 269 269 269 271 273 273 273 272 273 274 274 274 274 273 270 267 263 259 256 255 254 254 254 254 253 252 250 250 252 252 250 251 254 255 256 256 257 259 260 262
267 269 268 265 267 266 264 264 266 266 265 264 263 261 259 257 257 257 258 258 256 256 260 261 258 257 260 262 262 262 261 260 261 263 264 265 267 267 266 267 268 269 268 268 268 268 269 270 270 270 270 271 271 271 273 274 274 274 274 274 272 269 266 262 260 257 255 255 255 255 254 253 251 251 252 252 250 250 252 254 256 256 257 257 259 261
269 270 270 269 271 270 268 267 266 265 265 265 264 261 259 257 256 257 260 259 256 257 260 261 259 259 261 261 262 262 262 261 262 263 264 266 266 265 265 266 267 268 268 269 269 269 269 270 270 269 269 269 269 271 273 273 273 274 273 273 272 271 268 266 264 261 258 256 256 255 254 253 252 251 252 251 249 248 249 252 255 255 255 256 259 261
273 272 272 273 274 272 271 270 267 264 264 265 265 263 260 259 260 262 264 263 260 261 263 262 261 262 262 260 262 265 265 264 264 266 266 266 265 265 265 266 267 268 269 269 269 270 270 270 270 270 270 270 271 273 273 273 272 272 271 271 271 271 270 268 265 263 260 258 257 255 254 252 251 251 251 250 248 246 248 252 253 251 252 255 259 261
273 273 274 276 275 272 271 271 271 270 269 267 265 263 261 260 262 264 265 262 260 260 262 262 261 262 262 261 262 265 266 266 266 266 266 266 265 265 266 268 269 270 270 270 271 271 271 271 272 272 272 272 273 274 274 273 272 271 270 270 269 269 269 268 265 263 261 260 258 256 254 252 251 250 250 249 247 245 247 250 251 249 251 256 258 260
270 271 272 272 272 272 271 272 273 274 271 268 264 261 259 261 263 264 265 263 260 259 259 259 260 260 260 259 260 263 265 266 265 265 266 267 266 266 269 270 271 271 272 272 272 272 272 272 273 273 273 274 274 274 274 274 273 272 271 270 269 268 268 267 264 262 261 260 258 256 254 252 250 249 248 248 247 245 245 247 248 249 252 255 256 258
270 269 269 269 269 270 272 272 273 271 266 266 267 263 259 261 261 261 263 262 260 260 260 259 259 259 258 258 258 260 262 264 265 266 266 266 265 268 271 272 272 273 273 273 274 273 273 273 274 274 274 274 274 274 274 273 273 272 272 271 270 269 267 266 264 261 260 258 257 256 254 253 250 248 247 247 248 246 244 245 249 252 253 253 254 256
272 269 268 267 266 269 271 269 268 267 266 269 272 269 265 263 260 260 264 263 260 260 260 260 259 259 259 259 259 259 261 265 267 267 266 265 265 269 272 273 274 275 275 275 275 275 275 275 275 275 275 275 275 275 275 274 274 273 272 271 270 269 268 266 263 260 259 258 257 255 254 253 251 249 247 247 247 246 244 245 250 253 253 252 253 256
271 270 269 267 265 267 267 262 261 268 272 273 273 272 270 268 266 266 268 267 263 260 260 260 260 261 261 260 260 261 263 266 269 268 266 265 266 270 272 274 275 275 275 276 276 276 276 276 276 276 276 277 276 276 276 275 275 274 272 271 269 268 267 265 262 259 258 257 256 254 253 252 251 251 250 248 247 245 244 246 250 252 252 252 255 256
270 271 272 268 265 264 263 261 264 271 275 272 270 269 268 267 267 267 267 267 266 264 261 260 261 263 262 262 262 262 263 266 268 268 266 265 267 270 271 273 274 275 276 276 277 277 278 278 278 278 278 278 278 277 277 276 276 275 273 271 269 268 266 264 261 258 257 256 254 253 252 251 250 250 249 247 246 244 243 245 247 249 250 252 254 257
272 271 269 268 267 265 263 265 268 269 269 268 266 267 268 267 267 266 266 268 267 265 261 259 260 262 261 261 263 263 264 266 266 267 267 267 268 271 272 274 275 276 276 277 278 279 279 279 279 279 279 279 278 278 277 276 276 275 273 272 270 268 265 262 259 257 256 255 253 252 250 249 248 246 244 244 244 242 240 240 243 245 248 251 254 257
277 274 270 267 269 267 263 263 265 265 266 266 266 268 272 274 271 267 266 267 265 263 262 259 260 261 259 260 261 262 266 269 267 267 269 270 271 273 274 276 277 277 278 278 278 279 279 279 279 280 280 279 278 278 277 276 275 274 272 272 271 268 265 262 259 257 255 254 252 250 249 247 244 242 241 242 241 238 236 238 240 244 248 252 256 259
278 277 274 269 268 268 264 264 265 266 267 267 267 269 273 276 274 267 264 264 262 262 263 260 260 262 261 262 263 262 265 268 268 269 272 274 275 277 277 278 279 279 279 280 280 279 279 279 280 280 280 280 279 278 277 275 274 272 271 271 270 267 265 263 260 258 255 253 251 249 247 244 241 239 240 239 238 237 238 240 242 245 249 254 258 260
277 275 273 270 268 268 266 266 268 268 267 268 269 271 272 274 272 264 260 261 262 265 267 264 263 265 266 266 266 265 266 269 271 274 277 278 279 280 280 280 280 280 281 281 281 281 281 281 281 280 280 280 279 278 277 275 272 270 269 268 267 266 264 262 260 257 254 251 249 247 244 241 239 238 238 236 236 238 239 240 242 246 250 255 259 261
277 275 273 271 270 270 267 267 270 270 269 269 270 271 272 270 265 261 261 264 266 268 271 270 268 269 270 270 270 270 271 274 276 278 279 280 281 282 282 282 282 282 281 281 281 282 282 282 282 282 281 280 278 278 277 274 271 268 267 265 264 265 264 261 259 256 252 249 246 243 240 237 236 235 233 232 233 234 236 239 243 247 250 254 259 262
275 275 274 271 269 270 270 270 270 269 269 271 272 273 273 270 266 266 268 269 269 271 274 274 273 273 273 274 274 274 276 278 279 279 281 281 282 282 282 282 282 282 281 281 282 283 283 283 283 282 281 279 277 276 275 272 269 267 265 263 263 264 263 260 257 253 249 245 242 239 235 232 230 228 227 227 230 232 234 239 243 246 250 256 261 266
274 272 272 271 269 269 269 267 265 265 268 271 272 272 272 271 271 272 271 271 272 274 274 274 275 275 275 275 276 277 278 279 280 280 281 282 282 282 283 282 282 281 282 282 283 284 285 285 284 283 281 279 277 275 273 271 269 265 263 261 261 262 261 257 252 247 243 239 235 231 226 224 222 220 219 221 225 228 231 236 242 247 251 257 264 268
273 270 269 269 269 268 266 265 266 268 270 272 272 272 273 274 274 272 270 271 274 275 274 275 276 277 276 276 277 278 279 279 280 280 281 282 283 283 283 283 282 282 282 283 284 285 286 285 284 282 280 278 276 274 272 271 267 264 261 260 259 257 254 249 244 239 234 229 223 218 215 215 214 212 212 214 218 222 228 236 245 249 251 255 262 266
274 274 272 271 272 272 270 268 269 270 271 272 272 273 275 276 274 271 272 274 275 275 276 276 277 277 277 278 278 279 279 279 280 281 281 282 283 283 283 283 282 282 282 282 284 286 286 284 282 280 279 277 276 274 272 269 265 261 259 257 254 251 246 240 234 229 223 216 211 209 208 207 205 205 209 214 220 226 233 241 249 250 249 254 261 265
277 277 275 272 273 274 273 271 272 272 272 274 274 275 276 275 272 271 273 275 275 277 277 277 278 278 278 279 279 279 279 279 280 281 281 282 283 283 282 282 281 281 281 283 285 287 285 283 281 279 278 277 276 273 270 268 264 259 255 252 248 244 238 230 222 216 210 204 203 203 202 200 201 205 213 220 226 231 237 244 250 249 250 256 264 269
278 278 276 273 271 271 272 273 275 275 274 274 274 274 275 274 272 274 276 276 277 279 279 279 279 279 279 279 279 279 279 280 280 280 281 282 282 282 281 279 279 280 281 283 286 286 284 282 280 279 278 277 274 272 270 268 264 257 249 243 238 233 225 217 210 204 198 197 198 199 198 198 202 209 217 223 227 232 237 243 249 251 253 261 269 274
278 278 277 275 274 274 274 275 277 277 276 275 273 273 274 274 274 276 277 278 279 280 280 280 279 279 279 280 280 279 280 280 280 281 281 280 280 279 278 278 278 279 281 284 285 284 282 281 280 279 277 274 273 273 271 266 260 250 239 230 223 214 206 201 197 192 190 190 192 192 193 197 203 209 214 219 224 230 236 241 247 253 260 268 274 279
278 278 278 277 277 277 276 275 276 277 277 276 275 275 275 276 277 277 278 279 280 281 281 281 280 280 279 279 280 280 280 280 281 281 280 279 278 278 277 278 278 280 282 284 284 283 280 279 277 275 272 270 272 273 266 252 240 230 217 206 197 189 184 184 185 185 185 185 185 186 190 195 200 204 209 214 221 228 236 244 251 258 265 273 278 284
276 276 277 277 277 277 277 277 277 276 276 277 277 276 276 277 278 279 280 281 282 281 281 281 281 281 280 279 280 280 280 280 280 280 278 278 277 277 277 277 278 280 282 283 282 280 278 276 271 266 265 269 272 265 240 213 197 185 177 173 171 169 170 172 175 176 177 179 181 184 187 191 196 200 206 213 220 229 239 250 258 265 272 280 286 291